Dewpoint
44 41 40 41 42 43 44 44 46 47 47 47 47 47 46 47 47 48 48 49 49 50 50 51 51 49 34 17 17 26 46 42 24 23 22 21 18 15 11 11 11 12 18 22 20 19 22
41 39 40 42 43 44 45 45 46 46 47 47 47 47 47 47 47 47 48 49 50 50 50 51 50 48 19 15 26 29 29 22 24 22 23 22 22 20 16 14 14 18 15 12 10 8 16
40 39 42 44 45 44 44 45 47 47 48 47 48 48 47 47 47 48 49 50 51 51 50 49 48 33 19 19 27 22 20 24 26 26 24 27 26 20 20 16 20 17 12 8 12 15 16
40 41 45 47 45 44 46 47 47 48 47 47 48 48 48 47 47 48 49 51 51 49 49 48 48 30 18 24 26 18 19 15 23 28 29 29 27 24 22 22 17 13 11 4 9 13 11
41 44 46 42 44 45 46 46 47 48 46 44 48 48 48 48 49 49 49 52 51 49 46 46 35 24 15 30 17 17 21 20 20 25 28 28 25 22 20 14 8 10 7 10 10 12 14
42 43 47 41 44 45 45 45 46 47 48 47 48 48 48 48 48 49 48 46 49 43 39 36 30 17 17 17 18 14 19 23 22 21 23 25 23 15 18 16 6 14 15 15 13 15 16
44 44 46 43 44 45 44 44 45 47 48 47 48 48 48 46 47 49 42 33 26 25 25 20 19 15 18 19 18 13 17 18 19 16 16 24 13 19 22 24 23 23 21 19 19 20 20
44 44 45 44 46 44 42 44 45 47 47 47 48 48 47 45 46 48 43 35 36 37 20 25 24 20 24 23 13 14 15 13 14 10 16 15 16 20 17 21 22 21 20 19 21 22 23
45 44 45 46 42 43 44 44 44 45 46 47 48 48 46 45 47 45 42 40 41 41 25 14 19 14 18 18 16 16 16 17 14 10 16 13 15 17 20 21 22 23 23 21 22 24 21
47 47 47 45 44 44 44 44 44 45 46 47 48 47 46 45 42 42 39 43 43 43 16 9 10 12 14 17 16 17 19 17 12 12 14 14 15 18 21 21 25 25 25 24 24 22 16
48 47 48 47 45 45 44 45 44 44 46 47 47 46 45 42 43 37 40 45 45 39 26 10 9 14 15 13 14 16 19 15 12 14 18 14 14 22 24 23 26 27 30 27 25 20 18
47 49 48 48 47 46 45 45 45 44 46 47 46 45 45 37 44 42 44 44 40 28 24 11 10 11 11 13 15 16 17 19 19 14 16 15 19 21 24 23 28 29 27 22 20 19 20
48 48 48 48 48 47 46 45 46 45 45 46 46 44 42 37 39 45 47 41 31 31 14 11 7 10 10 10 14 15 15 16 14 7 10 12 16 19 20 23 26 25 28 18 17 22 14
48 48 48 48 48 47 47 45 46 45 46 46 45 43 41 38 39 44 43 28 26 14 11 9 9 11 9 11 13 15 15 12 15 11 8 12 12 17 19 22 18 27 31 26 16 12 12
48 48 48 48 48 48 47 46 46 46 46 46 43 40 37 40 42 44 36 33 34 9 13 7 10 9 13 13 13 14 17 15 17 16 13 14 15 16 17 18 15 19 22 24 26 24 22
45 47 48 48 48 48 47 46 46 46 47 45 36 31 31 44 43 40 36 32 18 16 12 9 5 8 9 12 14 14 16 18 18 18 20 18 15 17 16 17 14 17 19 26 29 23 19
43 44 45 48 48 48 47 46 46 46 47 43 35 25 41 43 40 33 33 27 20 20 14 11 9 11 9 13 14 17 13 17 21 16 19 17 19 16 16 19 16 19 21 26 30 25 22
38 42 43 46 48 48 47 46 46 46 46 40 33 33 42 42 33 37 35 20 25 20 21 15 14 15 15 16 16 18 16 16 22 19 14 18 20 17 12 18 15 19 21 22 28 24 26
38 39 42 42 46 48 47 46 45 46 45 37 31 35 40 41 32 31 31 26 25 20 19 17 16 16 17 17 20 18 18 24 24 19 18 18 23 17 13 17 13 16 18 21 22 30 26
38 38 39 42 42 44 48 46 45 46 46 38 34 32 34 37 31 22 22 24 26 24 19 19 18 19 19 19 19 22 19 25 25 21 26 24 17 12 13 11 14 12 15 20 20 23 19
37 37 37 39 42 43 45 47 45 46 46 38 37 34 33 30 33 25 19 20 19 21 21 19 19 17 18 25 22 19 20 22 23 24 24 23 16 15 13 13 14 15 17 18 15 15 19
36 36 37 38 39 42 44 46 45 45 46 39 32 35 33 27 31 28 25 23 17 18 22 20 19 19 19 19 18 25 21 19 19 23 22 23 21 16 18 13 14 17 17 18 19 19 19
36 36 36 37 38 39 43 43 46 45 45 39 37 36 33 29 30 29 29 23 18 23 24 19 21 21 20 18 20 21 22 21 21 21 21 24 24 21 16 12 15 19 18 17 17 19 18
35 35 36 36 37 38 40 42 44 44 44 40 36 32 35 31 28 28 26 24 22 22 23 22 23 21 22 27 27 26 24 23 24 23 23 21 20 23 23 14 17 17 17 17 16 17 17
33 34 35 35 36 37 38 41 42 44 45 41 37 32 36 33 27 26 26 25 24 26 24 25 24 23 29 26 27 29 26 25 24 23 23 22 21 25 22 18 12 10 15 18 17 16 18
33 33 34 35 35 36 37 42 41 43 45 43 39 37 32 37 28 25 26 26 26 28 28 28 30 32 30 27 29 24 19 20 19 22 22 21 23 24 25 19 13 14 18 19 21 17 20
32 33 33 34 35 36 36 37 40 40 41 44 42 42 33 37 27 27 26 29 26 27 28 28 28 29 29 34 31 26 20 12 14 16 22 23 26 24 23 22 15 13 20 21 17 18 22
32 32 33 35 35 35 36 37 38 41 41 44 41 42 37 38 33 32 30 29 27 28 32 29 28 30 31 32 29 28 25 20 15 13 18 19 22 23 23 22 16 17 20 19 22 24 21
33 33 33 34 35 36 36 37 40 41 41 44 40 41 40 37 33 35 34 35 28 29 28 31 29 27 29 32 31 30 25 26 19 20 18 16 19 25 22 20 22 22 21 23 21 19 23
Lifted_Index
14 14 14 14 13 13 12 12 12 12 12 12 12 13 13 12 12 12 11 11 10 9 8 7 7 8 9 9 9 10 10 11 11 11 11 10 9 7 6 6 7 7 9 10 11 11 10
14 14 14 13 13 13 13 12 12 12 12 12 12 12 12 12 12 12 11 10 10 9 9 8 8 9 9 9 10 10 11 11 11 11 11 11 10 9 8 7 8 8 9 10 11 11 11
14 14 13 13 12 13 13 12 12 11 11 11 12 12 12 12 12 12 11 10 10 9 9 9 10 10 10 10 11 11 12 12 12 11 11 11 11 11 10 9 9 9 8 9 11 12 12
14 13 13 12 12 12 12 12 12 11 11 11 11 11 12 12 12 12 11 10 9 10 10 10 10 10 10 11 12 12 12 12 12 11 11 11 11 11 11 10 10 8 7 7 10 12 12
14 13 12 12 12 12 12 12 12 11 11 11 11 11 11 12 12 12 11 10 10 10 10 10 10 10 11 11 12 12 12 12 12 11 11 11 11 11 10 9 8 7 6 7 10 12 12
13 12 12 12 12 12 12 12 12 12 11 11 11 11 11 12 12 12 11 11 10 10 10 11 10 11 11 12 12 12 12 12 11 11 10 10 10 10 10 9 7 7 8 9 11 12 12
13 12 12 12 12 12 12 12 12 12 11 11 11 11 11 12 12 11 11 11 10 10 10 11 11 11 11 12 12 12 12 11 11 10 9 9 8 8 10 10 9 9 10 10 10 11 12
13 12 12 12 12 12 12 12 12 12 12 11 11 11 12 12 11 11 10 10 10 10 10 11 11 11 11 11 11 12 12 11 9 8 8 8 8 9 10 10 10 9 8 8 8 8 9
12 12 12 12 12 12 12 12 12 12 12 12 11 11 12 12 11 10 10 10 10 10 9 10 11 11 11 11 11 11 11 11 9 7 7 7 8 10 10 9 8 6 5 4 4 5 5
12 12 12 12 12 12 12 12 12 12 12 12 11 12 12 12 11 10 10 10 10 9 7 8 10 11 12 11 10 11 12 11 9 7 7 8 9 9 9 8 6 4 3 2 2 2 2
12 11 11 11 12 12 12 12 12 12 12 11 11 12 12 12 11 10 10 10 10 8 5 7 10 11 11 11 11 11 11 11 9 8 8 8 8 9 8 7 5 3 2 1 1 1 1
11 11 11 11 12 12 12 12 12 12 12 11 12 12 13 12 11 10 10 9 8 6 4 6 8 9 9 9 10 10 10 10 9 7 7 8 8 8 7 6 4 2 1 1 0 0 0
11 11 11 11 11 12 12 12 12 12 11 11 12 12 13 12 11 10 9 8 6 4 4 5 7 7 7 7 8 8 8 7 7 6 6 6 7 8 8 6 4 2 1 0 0 -0 -0
11 11 11 11 11 11 12 12 12 12 11 11 12 13 13 12 11 10 9 7 4 4 5 6 6 6 6 6 7 7 6 6 6 6 5 4 5 7 8 7 5 3 2 1 0 0 -0
11 11 10 10 10 11 11 12 12 12 11 11 12 13 13 12 11 10 8 6 5 5 6 6 5 5 5 5 6 6 6 6 7 7 6 4 5 7 8 8 6 4 3 2 1 0 -0
12 11 10 10 10 10 11 12 12 12 11 12 12 13 12 12 11 9 7 6 6 7 7 6 5 4 4 5 5 5 6 7 8 8 8 6 6 7 8 8 7 5 4 3 2 1 0
13 12 11 10 10 10 10 11 12 11 11 12 12 12 12 12 11 9 7 6 8 9 9 7 6 5 5 5 5 5 6 7 9 9 9 8 6 6 7 7 7 6 5 4 3 2 1
14 13 12 10 10 10 10 11 11 11 11 12 12 11 11 11 10 8 7 8 9 9 9 8 7 7 6 5 5 5 6 8 9 9 8 8 6 5 6 7 8 7 6 5 4 3 3
14 14 13 11 10 10 10 10 11 11 11 11 11 11 11 10 9 8 7 8 9 9 9 9 8 8 7 6 6 6 7 8 10 9 9 8 6 4 4 6 7 7 7 6 5 4 3
14 14 13 12 11 10 9 10 10 10 11 11 11 11 10 10 9 8 7 7 8 9 9 9 9 8 8 7 6 6 7 9 10 10 10 8 6 4 4 5 6 7 6 6 6 5 4
14 14 14 13 12 10 9 9 10 10 10 11 11 11 10 9 9 8 8 7 7 8 9 9 8 8 7 7 7 7 8 9 10 10 10 8 6 5 5 6 6 6 6 6 6 5 5
15 15 14 14 13 11 10 9 9 9 10 11 12 11 10 9 9 9 8 7 7 7 8 8 8 8 8 8 7 8 8 9 9 9 9 8 6 5 5 6 6 6 6 6 6 5 5
15 15 14 14 13 12 11 9 9 9 10 11 11 11 10 9 9 8 8 7 7 8 8 9 9 9 9 9 9 9 9 10 9 9 9 8 7 5 4 5 5 5 6 6 6 6 6
15 15 15 14 14 13 12 10 9 9 9 10 11 10 9 9 8 8 8 8 8 8 9 9 10 10 10 10 10 10 10 10 10 10 9 8 7 5 4 4 4 5 6 6 6 6 6
13 14 14 14 14 13 12 11 10 9 9 10 10 10 9 9 8 8 8 8 8 8 9 9 10 10 10 10 9 8 7 8 8 9 10 9 8 6 4 3 3 5 6 7 6 6 6
10 11 12 13 13 13 13 12 11 10 9 9 10 10 9 9 9 8 8 8 8 8 8 9 9 10 10 9 8 6 5 6 6 7 8 9 8 6 4 3 3 5 6 7 6 6 6
7 8 9 10 11 12 12 11 11 10 10 9 9 9 9 9 9 8 8 8 7 8 8 9 9 9 9 8 7 5 5 5 5 5 6 6 6 5 4 3 4 6 7 7 6 6 6
5 6 7 7 8 9 10 10 10 10 9 9 9 9 9 9 9 9 8 8 7 7 7 8 8 9 9 8 7 6 6 6 6 5 5 5 5 5 5 4 5 7 7 7 7 7 7
5 5 5 6 7 7 8 9 9 9 8 8 8 9 9 9 9 9 9 8 7 7 7 8 8 8 8 8 7 7 6 6 6 5 6 6 5 5 5 5 6 7 7 7 7 8 7